Location: La Fredeussais
(48.1780°N, 1.3980°W)
Time: 03:57:17
(UTC+00:00)

Cosmos 1500 Rocket - Pass Details

Date: 09 May 2021
Orbit: 602 x 632 km, 82.5° (Epoch: 13 June)

Event Time Altitude Azimuth Distance (km) Brightness Sun altitude
Rises 20:18:25 0° 346° (NNW) 2,912 7.9 -7.5°
Reaches altitude 10° 20:20:42 10° 341° (NNW) 1,996 7.1 -7.8°
Maximum altitude 20:24:58 50° 266° (W) 787 4.5 -8.4°
Drops below altitude 10° 20:29:10 10° 191° (SSW) 1,961 5.9 -8.9°
Sets 20:31:24 0° 186° (S) 2,856 6.6 -9.2°
